When you browse on this site, cookies collect data to enhance your experience and personalize the content and advertising you see.
Visit our Privacy Policy to learn more. By continuing to use the site, you agree to this use of cookies and data.
  • In United Kingdom
  • List of Countries
  • For 7 days
  • Water Temperature
  • Weather Map
  • Weather Widgets
  • user-avatar
    Login

    Hourly Weather Puerres

    Today, 7 April, Tuesday

    Time Temperature Precipitation Wind Pressure Humidity
    00:00 +12°C° 0.1 mm 1 mps 547 mmHg 95%
    01:00 +12°C° 0.1 mm 1 mps 547 mmHg 95%
    02:00 +12°C° 0.2 mm 1 mps 547 mmHg 95%
    03:00 +12°C° 0.2 mm 1 mps 547 mmHg 95%
    04:00 +12°C° 0.2 mm 1 mps 546 mmHg 96%
    05:00 +12°C° 1 mm 1 mps 547 mmHg 96%
    06:00 +12°C° 1 mm 1 mps 547 mmHg 96%
    07:00 +12°C° 1 mm 1 mps 547 mmHg 96%
    08:00 +13°C° 0.4 mm 1 mps 548 mmHg 94%
    09:00 +13°C° 0.4 mm 1 mps 549 mmHg 93%
    10:00 +14°C° 0.4 mm 2 mps 549 mmHg 92%
    11:00 +14°C° 0.2 mm 1 mps 549 mmHg 89%
    12:00 +15°C° 0.2 mm 1 mps 548 mmHg 87%
    13:00 +16°C° 0.2 mm 1 mps 548 mmHg 84%
    14:00 +16°C° 0.7 mm 1 mps 548 mmHg 83%
    15:00 +17°C° 0.7 mm 2 mps 548 mmHg 81%
    16:00 +17°C° 0.7 mm 2 mps 548 mmHg 79%
    17:00 +16°C° 0.7 mm 2 mps 547 mmHg 85%
    18:00 +14°C° 0.7 mm 1 mps 547 mmHg 90%
    19:00 +12°C° 0.7 mm 1 mps 546 mmHg 95%
    20:00 +12°C° 0.1 mm 1 mps 546 mmHg 95%
    21:00 +12°C° 0.1 mm 1 mps 547 mmHg 94%
    22:00 +11°C° 0.1 mm 1 mps 547 mmHg 93%
    23:00 +12°C° 0.1 mm 1 mps 547 mmHg 94%

    Tomorrow, 8 April, Wednesday

    Time Temperature Precipitation Wind Pressure Humidity
    00:00 +12°C° 0.1 mm 1 mps 546 mmHg 94%
    01:00 +12°C° 0.1 mm 1 mps 546 mmHg 94%
    02:00 +12°C° 0.3 mm 1 mps 546 mmHg 94%
    03:00 +12°C° 0.3 mm 1 mps 546 mmHg 94%
    04:00 +12°C° 0.3 mm 1 mps 546 mmHg 94%
    05:00 +12°C° 0 mm 1 mps 546 mmHg 94%
    06:00 +12°C° 0 mm 1 mps 546 mmHg 93%
    07:00 +12°C° 0 mm 1 mps 547 mmHg 93%
    08:00 +13°C° 0.1 mm 1 mps 548 mmHg 90%
    09:00 +14°C° 0.1 mm 1 mps 548 mmHg 87%
    10:00 +15°C° 0.1 mm 1 mps 549 mmHg 85%
    11:00 +15°C° 1 mm 1 mps 549 mmHg 87%
    12:00 +15°C° 1 mm 1 mps 548 mmHg 89%
    13:00 +14°C° 1 mm 1 mps 547 mmHg 92%
    14:00 +14°C° 1 mm 1 mps 547 mmHg 91%
    15:00 +14°C° 1 mm 1 mps 547 mmHg 90%
    16:00 +14°C° 1 mm 1 mps 546 mmHg 89%
    17:00 +13°C° 0.1 mm 1 mps 546 mmHg 91%
    18:00 +12°C° 0.1 mm 1 mps 546 mmHg 93%
    19:00 +11°C° 0.1 mm 1 mps 546 mmHg 95%
    20:00 +11°C° 0 mm 1 mps 546 mmHg 95%
    21:00 +11°C° 0 mm 1 mps 546 mmHg 94%
    22:00 +10°C° 0 mm 2 mps 547 mmHg 93%
    23:00 +11°C° 0 mm 1 mps 546 mmHg 93%

    Day after tomorrow, 9 April, Thursday

    Time Temperature Precipitation Wind Pressure Humidity
    00:00 +11°C° 0 mm 1 mps 546 mmHg 92%
    01:00 +11°C° 0 mm 1 mps 546 mmHg 92%
    02:00 +11°C° 0.1 mm 1 mps 546 mmHg 92%
    03:00 +11°C° 0.1 mm 1 mps 546 mmHg 92%
    04:00 +11°C° 0.1 mm 1 mps 545 mmHg 91%
    05:00 +12°C° 0.3 mm 1 mps 546 mmHg 92%
    06:00 +12°C° 0.3 mm 1 mps 546 mmHg 92%
    07:00 +12°C° 0.3 mm 1 mps 546 mmHg 93%
    08:00 +12°C° 0.4 mm 1 mps 547 mmHg 92%
    09:00 +13°C° 0.4 mm 1 mps 548 mmHg 91%
    10:00 +14°C° 0.4 mm 1 mps 548 mmHg 89%
    11:00 +15°C° 0.4 mm 1 mps 548 mmHg 87%
    12:00 +15°C° 0.4 mm 1 mps 548 mmHg 85%
    13:00 +16°C° 0.4 mm 1 mps 548 mmHg 82%
    14:00 +16°C° 0.6 mm 1 mps 548 mmHg 83%
    15:00 +16°C° 0.6 mm 1 mps 547 mmHg 84%
    16:00 +16°C° 0.6 mm 1 mps 547 mmHg 85%
    17:00 +15°C° 0.3 mm 1 mps 547 mmHg 89%
    18:00 +14°C° 0.3 mm 1 mps 547 mmHg 92%
    19:00 +13°C° 0.3 mm 1 mps 546 mmHg 96%
    20:00 +12°C° 0.1 mm 1 mps 546 mmHg 95%
    21:00 +12°C° 0.1 mm 1 mps 547 mmHg 94%
    22:00 +12°C° 0.1 mm 1 mps 547 mmHg 93%
    23:00 +12°C° 0.1 mm 1 mps 546 mmHg 93%

    10 April, Friday

    Time Temperature Precipitation Wind Pressure Humidity
    00:00 +12°C° 0.1 mm 1 mps 546 mmHg 92%
    01:00 +11°C° 0.1 mm 1 mps 546 mmHg 92%
    02:00 +11°C° 0.1 mm 1 mps 546 mmHg 92%
    03:00 +11°C° 0.1 mm 1 mps 546 mmHg 93%
    04:00 +11°C° 0.1 mm 1 mps 546 mmHg 93%
    05:00 +11°C° 0.1 mm 1 mps 546 mmHg 93%
    06:00 +12°C° 0.1 mm 1 mps 546 mmHg 93%
    07:00 +12°C° 0.1 mm 1 mps 547 mmHg 93%
    08:00 +13°C° 0.1 mm 1 mps 548 mmHg 89%
    09:00 +15°C° 0.1 mm 1 mps 549 mmHg 84%
    10:00 +16°C° 0.1 mm 1 mps 550 mmHg 80%
    11:00 +18°C° 0.7 mm 1 mps 549 mmHg 78%
    12:00 +18°C° 0.7 mm 1 mps 549 mmHg 76%
    13:00 +18°C° 0.7 mm 2 mps 549 mmHg 74%
    14:00 +18°C° 1.4 mm 1 mps 548 mmHg 79%
    15:00 +16°C° 1.4 mm 1 mps 547 mmHg 84%
    16:00 +16°C° 1.4 mm 1 mps 546 mmHg 89%
    17:00 +15°C° 1 mm 1 mps 546 mmHg 92%
    18:00 +14°C° 1 mm 1 mps 546 mmHg 95%
    19:00 +13°C° 1 mm 1 mps 546 mmHg 97%
    20:00 +13°C° 0.5 mm 1 mps 546 mmHg 97%
    21:00 +12°C° 0.5 mm 1 mps 547 mmHg 96%
    22:00 +12°C° 0.5 mm 1 mps 547 mmHg 96%
    23:00 +12°C° 0.4 mm 1 mps 546 mmHg 95%

    11 April, Saturday

    Time Temperature Precipitation Wind Pressure Humidity
    00:00 +12°C° 0.4 mm 1 mps 546 mmHg 95%
    01:00 +10°C° 0.4 mm 0 mps 546 mmHg 94%
    02:00 +10°C° 0.1 mm 0 mps 546 mmHg 94%
    03:00 +10°C° 0.1 mm 0 mps 546 mmHg 94%
    04:00 +10°C° 0.1 mm 0 mps 546 mmHg 94%
    05:00 +10°C° 0.1 mm 0 mps 546 mmHg 94%
    06:00 +11°C° 0.1 mm 0 mps 547 mmHg 93%
    07:00 +11°C° 0.1 mm 0 mps 547 mmHg 93%
    08:00 +11°C° 0.2 mm 0 mps 548 mmHg 92%
    09:00 +12°C° 0.2 mm 0 mps 548 mmHg 92%
    10:00 +12°C° 0.2 mm 0 mps 548 mmHg 91%
    11:00 +13°C° 0.2 mm 0 mps 548 mmHg 87%
    12:00 +14°C° 0.2 mm 0 mps 548 mmHg 82%
    13:00 +15°C° 0.2 mm 0 mps 548 mmHg 78%
    14:00 +15°C° 0.5 mm 0 mps 548 mmHg 81%
    15:00 +16°C° 0.5 mm 1 mps 547 mmHg 83%
    16:00 +15°C° 0.5 mm 1 mps 547 mmHg 86%
    17:00 +14°C° 0.9 mm 1 mps 547 mmHg 89%
    18:00 +13°C° 0.9 mm 0 mps 547 mmHg 92%
    19:00 +12°C° 0.9 mm 0 mps 546 mmHg 96%
    20:00 +11°C° 1.7 mm 0 mps 547 mmHg 96%
    21:00 +12°C° 1.7 mm 1 mps 547 mmHg 96%
    22:00 +12°C° 1.7 mm 1 mps 547 mmHg 97%
    23:00 +12°C° 2.5 mm 1 mps 547 mmHg 97%

    12 April, Sunday

    Time Temperature Precipitation Wind Pressure Humidity
    00:00 +12°C° 2.5 mm 1 mps 547 mmHg 97%
    01:00 +10°C° 2.5 mm 0 mps 546 mmHg 97%
    02:00 +10°C° 0.5 mm 0 mps 546 mmHg 97%
    03:00 +10°C° 0.5 mm 0 mps 546 mmHg 96%
    04:00 +10°C° 0.5 mm 0 mps 546 mmHg 96%
    05:00 +10°C° 0.1 mm 0 mps 546 mmHg 96%
    06:00 +12°C° 0.1 mm 1 mps 547 mmHg 95%
    07:00 +12°C° 0.1 mm 1 mps 547 mmHg 95%
    08:00 +13°C° 0.1 mm 1 mps 548 mmHg 91%
    09:00 +14°C° 0.1 mm 1 mps 549 mmHg 87%
    10:00 +15°C° 0.1 mm 1 mps 550 mmHg 83%
    11:00 +15°C° 0.7 mm 1 mps 549 mmHg 84%
    12:00 +16°C° 0.7 mm 1 mps 549 mmHg 85%
    13:00 +16°C° 0.7 mm 1 mps 549 mmHg 86%
    14:00 +15°C° 1.3 mm 1 mps 548 mmHg 89%
    15:00 +15°C° 1.3 mm 1 mps 547 mmHg 91%
    16:00 +14°C° 1.3 mm 1 mps 547 mmHg 94%
    17:00 +13°C° 1.7 mm 1 mps 547 mmHg 95%
    18:00 +13°C° 1.7 mm 1 mps 547 mmHg 96%
    19:00 +11°C° 1.7 mm 0 mps 547 mmHg 97%
    20:00 +11°C° 1.8 mm 0 mps 547 mmHg 97%
    21:00 +12°C° 1.8 mm 1 mps 547 mmHg 96%
    22:00 +12°C° 1.8 mm 1 mps 548 mmHg 96%
    23:00 +11°C° 0.4 mm 1 mps 547 mmHg 95%
    Show more